Regional Weather Roundup
Issued by NWS Northern Indiana

Home | Current Version | Previous Version | Text Only | Print | Product List | Glossary Off
Versions: 1 2 3 4 5 6 7 8 9 10 11 12 13 14 15 16 17 18 19 20 21 22 23 24 25 26 27 28 29 30 31 32 33 34 35 36 37 38 39 40 41 42 43 44 45 46 47 48 49 50

000
ASUS43 KIWX 160910
RWRIWX

KIWX WEATHER ROUNDUP
NATIONAL WEATHER SERVICE NORTHERN INDIANA
500 AM EDT TUE SEP 16 2014

NOTE: "FAIR" INDICATES FEW OR NO CLOUDS BELOW 12,000 FEET WITH NO
SIGNIFICANT WEATHER AND/OR OBSTRUCTIONS TO VISIBILITY.

* THESE STATIONS ARE NOT UNDER NWS QUALITY CONTROL. THEY ALSO MAY NOT
  REPORT WEATHER SUCH AS PRECIPITATION OR FOG.

INZ001>027-161000-
NORTHERN INDIANA

CITY           SKY/WX    TMP DP  RH WIND       PRES   REMARKS
GARY*          CLOUDY    54  49  85 W7        30.18S
VALPARAISO     CLOUDY    52  49  89 CALM      30.17S
MICHIGAN CITY* CLOUDY    52  52 100 CALM      30.17S
LAPORTE*       FOG       47  47 100 CALM      30.17S VSB 3/4
KNOX*          PTCLDY    51  49  93 NE5       30.16R
SOUTH BEND     CLOUDY    53  50  89 NE7       30.17S
GOSHEN         PTCLDY    50  48  93 N5        30.16S
MONTICELLO*    CLOUDY    52  52  99 N5        30.15S FOG
LOGANSPORT*    FOG       50  50 100 CALM      30.16R VSB 1/2
ROCHESTER*     CLOUDY    54  54 100 N6        30.16R FOG
WARSAW*        MOCLDY    50  50 100 N7        30.15S FOG
ANGOLA*        CLOUDY    52  41  66 CALM      30.15R
FORT WAYNE     CLOUDY    52  51  97 N8        30.14S FOG
HUNTINGTON*    CLOUDY    50  50 100 N3        30.14R FOG
PERU/GRISSOM   CLOUDY    54 N/A N/A N7        30.14S HAZE
MARION*        FOG       51  50  98 N5        30.14S VSB 3/4

$$
INZ028>050-161000-
CENTRAL INDIANA

CITY           SKY/WX    TMP DP  RH WIND       PRES   REMARKS
LAFAYETTE      CLOUDY    53  52  96 N7        30.15S FOG
KOKOMO*        CLOUDY    52  48  87 N7        30.15S
MUNCIE*        PTCLDY    51  49  92 N7        30.13R FOG
INDIANAPOLIS   MOCLDY    54  51  90 N9        30.13R

$$
MIZ043>046-050>051-056>058-064>065-071>073-077>080-161000-
SOUTHWEST LOWER MICHIGAN

CITY           SKY/WX    TMP DP  RH WIND       PRES   REMARKS
BATTLE CREEK   MOCLDY    50  47  89 NW7       30.17R
BENTON HARBOR  PTCLDY    48  47  96 NE3       30.16F
COLDWATER*     CLOUDY    53  52  95 NW5       30.15R
HILLSDALE*     PTCLDY    48  48 100 CALM      30.14R FOG
HOLLAND        FOG       44  42  93 CALM      30.17S VSB 3/4
GRAND RAPIDS   FOG       48  48 100 CALM      30.17S VSB 1/4
KALAMAZOO      CLEAR     48  46  93 CALM      30.17S FOG
STURGIS*       CLOUDY    52  52 100 NW5       30.16R
THREE RIVERS*  FAIR      51  50  93 CALM      30.17R FOG

$$
OHZ001>008-015>018-024>025-161000-
NORTHWEST OHIO

CITY           SKY/WX    TMP DP  RH WIND       PRES   REMARKS
WAUSEON*       CLOUDY    52  52 100 NW5       30.13S
DEFIANCE       CLOUDY    54  51  90 CALM      30.13F
FINDLAY        CLOUDY    53  51  93 NW6       30.11S FOG
TOLEDO EXPRESS CLOUDY    53  51  93 NW5       30.12S
TOLEDO METCALF CLOUDY    54  51  90 NW6       30.13S
LIMA           CLOUDY    53  51  93 N8        30.12S

$$
&&



USA.gov is the U.S. government's official web portal to all federal, state and local government web resources and services.